Time,TemperatureF,DewpointF,PressureIn,WindDirection,WindDirectionDegrees,WindSpeedMPH,WindSpeedGustMPH,Humidity,HourlyPrecipIn,Conditions,Clouds,dailyrainin,SoftwareType,DateUTC
2013-07-20 00:01:00,81.4,78.9,34.11,West,271,0.1,1.4,92,0.00,n/a,n/a,-99.99,Henriksen +1-Wire,2013-07-20 04:01:00,
2013-07-20 02:02:00,77.7,69.8,34.09,NE,40,0.3,3.2,76,0.00,n/a,n/a,-99.99,Henriksen +1-Wire,2013-07-20 06:02:00,
2013-07-20 02:05:00,77.6,70.1,34.09,NE,43,0.8,3.6,77,0.00,n/a,n/a,-99.99,Henriksen +1-Wire,2013-07-20 06:05:00,
2013-07-20 02:08:00,77.5,70.2,34.09,NE,44,0.9,3.6,77,0.00,n/a,n/a,-99.99,Henriksen +1-Wire,2013-07-20 06:08:00,
2013-07-20 02:10:00,77.4,70.2,34.09,NE,41,0.3,3.6,78,0.00,n/a,n/a,-99.99,Henriksen +1-Wire,2013-07-20 06:10:00,
2013-07-20 02:15:00,77.3,70.2,34.08,North,359,1.9,4.9,78,0.00,n/a,n/a,-99.99,Henriksen +1-Wire,2013-07-20 06:15:00,
2013-07-20 02:20:00,77.2,70.2,34.07,North,4,0.3,4.9,78,0.00,n/a,n/a,-99.99,Henriksen +1-Wire,2013-07-20 06:20:00,
2013-07-20 02:25:00,77.1,70.1,34.06,NE,51,0.0,3.0,78,0.00,n/a,n/a,-99.99,Henriksen +1-Wire,2013-07-20 06:25:00,
2013-07-20 02:30:00,76.8,70.1,34.05,East,88,0.0,3.6,79,0.00,n/a,n/a,-99.99,Henriksen +1-Wire,2013-07-20 06:30:00,
2013-07-20 02:35:00,76.5,70.0,34.04,NE,48,0.0,3.6,79,0.00,n/a,n/a,-99.99,Henriksen +1-Wire,2013-07-20 06:35:00,
2013-07-20 02:41:00,76.1,70.1,34.03,ESE,114,0.0,1.1,81,0.00,n/a,n/a,-99.99,Henriksen +1-Wire,2013-07-20 06:41:00,
2013-07-20 02:47:00,75.9,70.0,34.03,NE,50,1.5,4.2,81,0.00,n/a,n/a,-99.99,Henriksen +1-Wire,2013-07-20 06:47:00,
2013-07-20 02:52:00,75.8,70.1,34.04,North,0,2.2,5.5,82,0.00,n/a,n/a,-99.99,Henriksen +1-Wire,2013-07-20 06:52:00,
2013-07-20 02:58:00,75.6,70.1,34.05,NE,44,2.0,5.5,82,0.00,n/a,n/a,-99.99,Henriksen +1-Wire,2013-07-20 06:58:00,
2013-07-20 03:03:00,75.6,70.1,34.04,NE,46,0.7,4.8,82,0.00,n/a,n/a,-99.99,Henriksen +1-Wire,2013-07-20 07:03:00,
2013-07-20 03:08:00,75.7,70.0,34.03,NE,47,1.6,4.2,82,0.00,n/a,n/a,-99.99,Henriksen +1-Wire,2013-07-20 07:08:00,
2013-07-20 03:13:00,75.8,69.9,34.03,ENE,75,0.2,4.9,81,0.00,n/a,n/a,-99.99,Henriksen +1-Wire,2013-07-20 07:13:00,
2013-07-20 03:18:00,75.8,69.9,34.03,East,85,1.7,4.9,81,0.00,n/a,n/a,-99.99,Henriksen +1-Wire,2013-07-20 07:18:00,
2013-07-20 03:23:00,75.8,69.8,34.03,NE,48,0.7,4.2,81,0.00,n/a,n/a,-99.99,Henriksen +1-Wire,2013-07-20 07:23:00,
2013-07-20 03:29:00,75.9,69.6,34.03,NE,49,0.6,3.8,80,0.00,n/a,n/a,-99.99,Henriksen +1-Wire,2013-07-20 07:29:00,
2013-07-20 03:34:00,75.8,69.5,34.03,ENE,59,1.4,4.8,80,0.00,n/a,n/a,-99.99,Henriksen +1-Wire,2013-07-20 07:34:00,
2013-07-20 03:40:00,75.8,69.6,34.04,NE,45,0.1,4.3,80,0.00,n/a,n/a,-99.99,Henriksen +1-Wire,2013-07-20 07:40:00,
2013-07-20 03:45:00,75.7,69.5,34.05,NE,38,1.1,2.4,80,0.00,n/a,n/a,-99.99,Henriksen +1-Wire,2013-07-20 07:45:00,
2013-07-20 03:50:00,75.6,69.4,34.05,NE,40,1.7,4.7,80,0.00,n/a,n/a,-99.99,Henriksen +1-Wire,2013-07-20 07:50:00,
2013-07-20 03:55:00,75.5,69.3,34.05,NE,36,1.8,4.7,81,0.00,n/a,n/a,-99.99,Henriksen +1-Wire,2013-07-20 07:55:00,
2013-07-20 04:00:00,75.4,69.4,34.04,NNE,16,0.0,3.0,81,0.00,n/a,n/a,-99.99,Henriksen +1-Wire,2013-07-20 08:00:00,
2013-07-20 04:05:00,75.3,69.5,34.05,North,11,0.0,2.5,81,0.00,n/a,n/a,-99.99,Henriksen +1-Wire,2013-07-20 08:05:00,
2013-07-20 04:10:00,75.2,69.5,34.06,NE,41,0.5,2.9,82,0.00,n/a,n/a,-99.99,Henriksen +1-Wire,2013-07-20 08:10:00,
2013-07-20 04:16:00,75.2,69.7,34.05,NE,37,1.9,4.9,82,0.00,n/a,n/a,-99.99,Henriksen +1-Wire,2013-07-20 08:16:00,
2013-07-20 04:21:00,75.2,69.9,34.05,SSW,202,0.3,4.9,83,0.00,n/a,n/a,-99.99,Henriksen +1-Wire,2013-07-20 08:21:00,
2013-07-20 04:27:00,75.2,69.9,34.06,NE,45,0.6,3.0,83,0.00,n/a,n/a,-99.99,Henriksen +1-Wire,2013-07-20 08:27:00,
2013-07-20 04:32:00,75.2,69.8,34.06,NE,36,0.1,3.0,82,0.00,n/a,n/a,-99.99,Henriksen +1-Wire,2013-07-20 08:32:00,
2013-07-20 04:38:00,75.2,69.7,34.05,NE,39,0.6,2.1,82,0.00,n/a,n/a,-99.99,Henriksen +1-Wire,2013-07-20 08:38:00,
2013-07-20 04:43:00,75.1,69.7,34.05,NE,48,1.5,2.4,83,0.00,n/a,n/a,-99.99,Henriksen +1-Wire,2013-07-20 08:43:00,
2013-07-20 04:48:00,75.0,69.8,34.05,NE,48,0.2,2.4,83,0.00,n/a,n/a,-99.99,Henriksen +1-Wire,2013-07-20 08:48:00,
2013-07-20 04:54:00,75.0,69.8,34.05,NE,36,0.9,2.8,83,0.00,n/a,n/a,-99.99,Henriksen +1-Wire,2013-07-20 08:54:00,
2013-07-20 05:00:00,75.0,69.8,34.06,NE,43,0.6,2.1,83,0.00,n/a,n/a,-99.99,Henriksen +1-Wire,2013-07-20 09:00:00,
2013-07-20 05:06:00,75.0,69.9,34.06,NNE,32,1.2,2.3,84,0.00,n/a,n/a,-99.99,Henriksen +1-Wire,2013-07-20 09:06:00,
2013-07-20 05:11:00,74.9,70.0,34.06,NE,48,1.3,4.3,84,0.00,n/a,n/a,-99.99,Henriksen +1-Wire,2013-07-20 09:11:00,
2013-07-20 05:16:00,74.7,70.1,34.06,NE,51,1.4,4.3,85,0.00,n/a,n/a,-99.99,Henriksen +1-Wire,2013-07-20 09:16:00,
2013-07-20 05:21:00,74.6,70.5,34.06,NE,34,1.7,4.6,86,0.00,n/a,n/a,-99.99,Henriksen +1-Wire,2013-07-20 09:21:00,
2013-07-20 05:27:00,74.5,70.6,34.06,NE,43,1.4,4.6,87,0.00,n/a,n/a,-99.99,Henriksen +1-Wire,2013-07-20 09:27:00,
2013-07-20 05:32:00,74.5,70.4,34.08,NE,44,0.9,2.5,86,0.00,n/a,n/a,-99.99,Henriksen +1-Wire,2013-07-20 09:32:00,
2013-07-20 05:37:00,74.5,70.1,34.08,NE,40,0.9,2.4,86,0.00,n/a,n/a,-99.99,Henriksen +1-Wire,2013-07-20 09:37:00,
2013-07-20 05:42:00,74.5,70.0,34.08,NE,42,0.7,1.8,85,0.00,n/a,n/a,-99.99,Henriksen +1-Wire,2013-07-20 09:42:00,
2013-07-20 05:47:00,74.5,70.0,34.09,NE,44,0.5,2.4,85,0.00,n/a,n/a,-99.99,Henriksen +1-Wire,2013-07-20 09:47:00,
2013-07-20 05:53:00,74.4,70.0,34.08,NE,49,0.7,2.4,86,0.00,n/a,n/a,-99.99,Henriksen +1-Wire,2013-07-20 09:53:00,
2013-07-20 05:58:00,74.4,70.1,34.08,NE,43,0.7,2.0,86,0.00,n/a,n/a,-99.99,Henriksen +1-Wire,2013-07-20 09:58:00,
2013-07-20 06:03:00,74.3,70.1,34.08,ENE,62,0.6,2.0,86,0.00,n/a,n/a,-99.99,Henriksen +1-Wire,2013-07-20 10:03:00,
2013-07-20 06:08:00,74.2,70.1,34.09,NE,51,0.9,2.2,86,0.00,n/a,n/a,-99.99,Henriksen +1-Wire,2013-07-20 10:08:00,
2013-07-20 06:13:00,74.2,70.2,34.09,NE,42,0.3,2.2,87,0.00,n/a,n/a,-99.99,Henriksen +1-Wire,2013-07-20 10:13:00,
2013-07-20 06:18:00,74.2,70.3,34.09,NE,56,0.7,1.8,87,0.00,n/a,n/a,-99.99,Henriksen +1-Wire,2013-07-20 10:18:00,
2013-07-20 06:23:00,74.2,70.4,34.09,East,87,0.0,1.8,87,0.00,n/a,n/a,-99.99,Henriksen +1-Wire,2013-07-20 10:23:00,
2013-07-20 06:28:00,74.3,70.5,34.10,East,95,1.0,2.2,88,0.00,n/a,n/a,-99.99,Henriksen +1-Wire,2013-07-20 10:28:00,
2013-07-20 06:33:00,74.4,70.6,34.10,NE,52,0.9,2.2,87,0.00,n/a,n/a,-99.99,Henriksen +1-Wire,2013-07-20 10:33:00,
2013-07-20 06:38:00,74.5,70.7,34.10,NE,51,0.7,2.1,87,0.00,n/a,n/a,-99.99,Henriksen +1-Wire,2013-07-20 10:38:00,
2013-07-20 06:43:00,74.6,70.8,34.11,South,174,0.0,1.8,87,0.00,n/a,n/a,-99.99,Henriksen +1-Wire,2013-07-20 10:43:00,
2013-07-20 06:48:00,74.7,71.0,34.11,North,357,0.3,2.4,88,0.00,n/a,n/a,-99.99,Henriksen +1-Wire,2013-07-20 10:48:00,
2013-07-20 06:53:00,74.9,71.1,34.11,ENE,58,0.4,2.4,87,0.00,n/a,n/a,-99.99,Henriksen +1-Wire,2013-07-20 10:53:00,
2013-07-20 06:59:00,75.2,71.3,34.12,NE,51,0.5,2.6,87,0.00,n/a,n/a,-99.99,Henriksen +1-Wire,2013-07-20 10:59:00,
2013-07-20 07:04:00,75.5,71.5,34.12,SSW,213,0.7,2.6,87,0.00,n/a,n/a,-99.99,Henriksen +1-Wire,2013-07-20 11:04:00,
2013-07-20 07:09:00,76.0,71.9,34.12,SW,219,0.9,3.0,86,0.00,n/a,n/a,-99.99,Henriksen +1-Wire,2013-07-20 11:09:00,
2013-07-20 07:14:00,76.4,72.0,34.12,SW,216,0.4,3.0,85,0.00,n/a,n/a,-99.99,Henriksen +1-Wire,2013-07-20 11:14:00,
2013-07-20 07:20:00,76.7,72.1,34.13,SW,217,0.2,1.8,85,0.00,n/a,n/a,-99.99,Henriksen +1-Wire,2013-07-20 11:20:00,
2013-07-20 07:26:00,77.0,72.2,34.13,SSW,209,0.3,1.8,84,0.00,n/a,n/a,-99.99,Henriksen +1-Wire,2013-07-20 11:26:00,
2013-07-20 07:32:00,77.2,72.2,34.12,NE,40,0.4,3.0,84,0.00,n/a,n/a,-99.99,Henriksen +1-Wire,2013-07-20 11:32:00,
2013-07-20 07:37:00,77.2,72.1,34.13,NE,40,0.8,3.0,84,0.00,n/a,n/a,-99.99,Henriksen +1-Wire,2013-07-20 11:37:00,
2013-07-20 07:42:00,77.5,72.4,34.14,NW,318,1.1,2.4,84,0.00,n/a,n/a,-99.99,Henriksen +1-Wire,2013-07-20 11:42:00,
2013-07-20 07:48:00,77.9,72.8,34.15,West,266,0.8,3.0,84,0.00,n/a,n/a,-99.99,Henriksen +1-Wire,2013-07-20 11:48:00,
2013-07-20 07:53:00,78.0,72.7,34.15,WNW,294,1.1,3.0,83,0.00,n/a,n/a,-99.99,Henriksen +1-Wire,2013-07-20 11:53:00,
2013-07-20 07:58:00,78.1,72.5,34.15,West,271,1.3,3.0,82,0.00,n/a,n/a,-99.99,Henriksen +1-Wire,2013-07-20 11:58:00,
2013-07-20 08:03:00,78.1,72.6,34.15,WSW,239,0.8,2.8,82,0.00,n/a,n/a,-99.99,Henriksen +1-Wire,2013-07-20 12:03:00,
2013-07-20 08:08:00,78.1,72.7,34.15,East,85,0.5,2.4,83,0.00,n/a,n/a,-99.99,Henriksen +1-Wire,2013-07-20 12:08:00,
2013-07-20 08:13:00,78.1,73.0,34.15,NE,34,0.2,1.8,84,0.00,n/a,n/a,-99.99,Henriksen +1-Wire,2013-07-20 12:13:00,
2013-07-20 08:18:00,78.0,73.2,34.16,NNE,25,0.0,1.1,85,0.00,n/a,n/a,-99.99,Henriksen +1-Wire,2013-07-20 12:18:00,
2013-07-20 08:23:00,78.0,73.4,34.16,North,0,0.9,2.4,85,0.00,n/a,n/a,-99.99,Henriksen +1-Wire,2013-07-20 12:23:00,
2013-07-20 08:28:00,78.1,73.4,34.16,North,5,1.0,2.5,85,0.00,n/a,n/a,-99.99,Henriksen +1-Wire,2013-07-20 12:28:00,
2013-07-20 08:33:00,78.6,73.6,34.16,NNW,341,0.2,2.5,84,0.00,n/a,n/a,-99.99,Henriksen +1-Wire,2013-07-20 12:33:00,
2013-07-20 08:39:00,79.0,73.4,34.15,NW,320,0.8,2.5,82,0.00,n/a,n/a,-99.99,Henriksen +1-Wire,2013-07-20 12:39:00,
2013-07-20 08:45:00,79.2,73.5,34.15,NNW,346,0.0,2.5,82,0.00,n/a,n/a,-99.99,Henriksen +1-Wire,2013-07-20 12:45:00,
2013-07-20 08:50:00,79.5,73.8,34.15,NW,316,1.4,4.2,82,0.00,n/a,n/a,-99.99,Henriksen +1-Wire,2013-07-20 12:50:00,
2013-07-20 08:55:00,79.5,73.7,34.15,North,10,1.2,4.2,82,0.00,n/a,n/a,-99.99,Henriksen +1-Wire,2013-07-20 12:55:00,
2013-07-20 09:00:00,79.5,73.6,34.13,North,10,0.8,2.4,81,0.00,n/a,n/a,-99.99,Henriksen +1-Wire,2013-07-20 13:00:00,
2013-07-20 09:05:00,79.3,73.5,34.12,NNE,27,0.0,2.3,82,0.00,n/a,n/a,-99.99,Henriksen +1-Wire,2013-07-20 13:05:00,
2013-07-20 09:10:00,79.2,73.5,34.12,NNE,24,0.8,2.3,82,0.00,n/a,n/a,-99.99,Henriksen +1-Wire,2013-07-20 13:10:00,
2013-07-20 09:15:00,79.0,73.8,34.12,North,349,1.0,3.0,83,0.00,n/a,n/a,-99.99,Henriksen +1-Wire,2013-07-20 13:15:00,
2013-07-20 09:20:00,79.1,74.5,34.12,NNW,348,0.6,3.0,85,0.00,n/a,n/a,-99.99,Henriksen +1-Wire,2013-07-20 13:20:00,
2013-07-20 09:26:00,79.4,74.8,34.12,NNE,15,1.2,2.5,85,0.00,n/a,n/a,-99.99,Henriksen +1-Wire,2013-07-20 13:26:00,
2013-07-20 09:31:00,79.5,74.8,34.11,NNE,15,1.1,3.4,85,0.00,n/a,n/a,-99.99,Henriksen +1-Wire,2013-07-20 13:31:00,
2013-07-20 09:36:00,79.7,74.5,34.10,ENE,65,0.1,3.4,84,0.00,n/a,n/a,-99.99,Henriksen +1-Wire,2013-07-20 13:36:00,
2013-07-20 09:41:00,79.8,74.3,34.09,NNE,16,1.1,3.0,83,0.00,n/a,n/a,-99.99,Henriksen +1-Wire,2013-07-20 13:41:00,
2013-07-20 09:47:00,80.0,74.2,34.09,NNW,340,1.4,3.0,82,0.00,n/a,n/a,-99.99,Henriksen +1-Wire,2013-07-20 13:47:00,
2013-07-20 09:53:00,80.4,74.4,34.08,North,353,1.3,3.8,81,0.00,n/a,n/a,-99.99,Henriksen +1-Wire,2013-07-20 13:53:00,
2013-07-20 09:58:00,80.7,74.5,34.08,North,356,1.3,3.8,81,0.00,n/a,n/a,-99.99,Henriksen +1-Wire,2013-07-20 13:58:00,
2013-07-20 10:03:00,81.2,74.6,34.08,NNE,15,1.3,3.6,80,0.00,n/a,n/a,-99.99,Henriksen +1-Wire,2013-07-20 14:03:00,
2013-07-20 10:08:00,81.8,74.8,34.07,NNW,342,1.7,3.0,79,0.00,n/a,n/a,-99.99,Henriksen +1-Wire,2013-07-20 14:08:00,
2013-07-20 10:14:00,82.4,74.5,34.06,NW,309,1.9,5.4,76,0.00,n/a,n/a,-99.99,Henriksen +1-Wire,2013-07-20 14:14:00,
2013-07-20 10:19:00,82.7,74.1,34.06,West,269,0.4,4.8,74,0.00,n/a,n/a,-99.99,Henriksen +1-Wire,2013-07-20 14:19:00,
2013-07-20 10:24:00,82.8,73.5,34.07,SW,230,1.2,4.2,73,0.00,n/a,n/a,-99.99,Henriksen +1-Wire,2013-07-20 14:24:00,
2013-07-20 10:29:00,83.0,73.5,34.07,West,263,1.5,3.2,72,0.00,n/a,n/a,-99.99,Henriksen +1-Wire,2013-07-20 14:29:00,
2013-07-20 10:34:00,83.0,73.7,34.06,WSW,253,1.7,3.6,73,0.00,n/a,n/a,-99.99,Henriksen +1-Wire,2013-07-20 14:34:00,
2013-07-20 10:39:00,83.3,74.7,34.07,WSW,258,1.5,3.6,74,0.00,n/a,n/a,-99.99,Henriksen +1-Wire,2013-07-20 14:39:00,
2013-07-20 10:44:00,83.7,75.4,34.08,West,270,1.5,3.1,75,0.00,n/a,n/a,-99.99,Henriksen +1-Wire,2013-07-20 14:44:00,
2013-07-20 10:50:00,83.7,75.5,34.07,West,270,1.6,4.3,76,0.00,n/a,n/a,-99.99,Henriksen +1-Wire,2013-07-20 14:50:00,
2013-07-20 10:55:00,84.0,75.8,34.06,North,7,1.0,6.4,76,0.00,n/a,n/a,-99.99,Henriksen +1-Wire,2013-07-20 14:55:00,
2013-07-20 11:00:00,84.4,76.1,34.06,West,265,0.7,6.4,75,0.00,n/a,n/a,-99.99,Henriksen +1-Wire,2013-07-20 15:00:00,
2013-07-20 11:05:00,84.7,76.3,34.06,WSW,237,1.4,4.6,75,0.00,n/a,n/a,-99.99,Henriksen +1-Wire,2013-07-20 15:05:00,
2013-07-20 11:11:00,85.2,76.8,34.05,SSW,210,1.2,3.1,75,0.00,n/a,n/a,-99.99,Henriksen +1-Wire,2013-07-20 15:11:00,
2013-07-20 11:16:00,85.7,77.2,34.04,WSW,246,1.6,4.6,75,0.00,n/a,n/a,-99.99,Henriksen +1-Wire,2013-07-20 15:16:00,
2013-07-20 11:21:00,86.2,77.7,34.03,SW,230,2.1,4.8,75,0.00,n/a,n/a,-99.99,Henriksen +1-Wire,2013-07-20 15:21:00,
2013-07-20 11:26:00,86.4,77.4,34.03,SW,230,1.2,4.8,74,0.00,n/a,n/a,-99.99,Henriksen +1-Wire,2013-07-20 15:26:00,
2013-07-20 11:32:00,86.4,77.0,34.03,East,90,0.6,4.3,73,0.00,n/a,n/a,-99.99,Henriksen +1-Wire,2013-07-20 15:32:00,
2013-07-20 11:37:00,86.4,77.0,34.03,East,89,1.7,3.6,73,0.00,n/a,n/a,-99.99,Henriksen +1-Wire,2013-07-20 15:37:00,
2013-07-20 11:42:00,86.6,77.1,34.03,NNW,327,1.9,7.2,72,0.00,n/a,n/a,-99.99,Henriksen +1-Wire,2013-07-20 15:42:00,
2013-07-20 11:48:00,86.7,76.7,34.03,NE,40,1.6,5.0,71,0.00,n/a,n/a,-99.99,Henriksen +1-Wire,2013-07-20 15:48:00,
2013-07-20 11:53:00,86.9,76.4,34.03,NNW,340,1.4,4.6,70,0.00,n/a,n/a,-99.99,Henriksen +1-Wire,2013-07-20 15:53:00,
2013-07-20 11:58:00,86.9,76.0,34.02,SW,225,1.3,4.9,69,0.00,n/a,n/a,-99.99,Henriksen +1-Wire,2013-07-20 15:58:00,
2013-07-20 12:04:00,87.1,75.5,34.01,WNW,290,1.8,6.1,68,0.00,n/a,n/a,-99.99,Henriksen +1-Wire,2013-07-20 16:04:00,
2013-07-20 12:10:00,87.3,75.3,34.00,West,267,1.5,4.2,66,0.00,n/a,n/a,-99.99,Henriksen +1-Wire,2013-07-20 16:10:00,
2013-07-20 12:15:00,87.4,75.1,34.00,North,9,0.5,4.2,66,0.00,n/a,n/a,-99.99,Henriksen +1-Wire,2013-07-20 16:15:00,
2013-07-20 12:20:00,87.6,75.6,33.99,SSW,203,1.8,3.9,67,0.00,n/a,n/a,-99.99,Henriksen +1-Wire,2013-07-20 16:20:00,
2013-07-20 12:26:00,87.3,74.9,33.99,WSW,246,1.6,3.9,66,0.00,n/a,n/a,-99.99,Henriksen +1-Wire,2013-07-20 16:26:00,
2013-07-20 12:31:00,87.5,75.4,34.00,SSE,167,1.2,3.8,67,0.00,n/a,n/a,-99.99,Henriksen +1-Wire,2013-07-20 16:31:00,
2013-07-20 12:36:00,87.5,76.1,33.99,NNW,338,1.9,4.2,68,0.00,n/a,n/a,-99.99,Henriksen +1-Wire,2013-07-20 16:36:00,
2013-07-20 12:42:00,87.3,76.2,33.98,North,356,1.6,3.6,69,0.00,n/a,n/a,-99.99,Henriksen +1-Wire,2013-07-20 16:42:00,
2013-07-20 12:48:00,87.1,76.8,33.99,NNE,25,1.6,4.3,71,0.00,n/a,n/a,-99.99,Henriksen +1-Wire,2013-07-20 16:48:00,
2013-07-20 12:53:00,87.1,77.3,33.99,NNE,28,2.0,3.6,72,0.00,n/a,n/a,-99.99,Henriksen +1-Wire,2013-07-20 16:53:00,
2013-07-20 12:58:00,87.6,77.4,33.98,North,353,2.1,4.0,71,0.00,n/a,n/a,-99.99,Henriksen +1-Wire,2013-07-20 16:58:00,
2013-07-20 13:03:00,88.3,77.4,33.98,NW,313,1.4,4.0,69,0.00,n/a,n/a,-99.99,Henriksen +1-Wire,2013-07-20 17:03:00,
2013-07-20 13:08:00,88.7,76.8,33.98,West,268,2.3,4.8,67,0.00,n/a,n/a,-99.99,Henriksen +1-Wire,2013-07-20 17:08:00,
2013-07-20 13:13:00,89.0,76.3,33.98,NW,325,1.9,4.8,65,0.00,n/a,n/a,-99.99,Henriksen +1-Wire,2013-07-20 17:13:00,
2013-07-20 13:18:00,89.2,76.0,33.97,North,7,2.7,5.4,64,0.00,n/a,n/a,-99.99,Henriksen +1-Wire,2013-07-20 17:18:00,
2013-07-20 13:23:00,89.5,76.1,33.97,NW,320,1.7,5.4,64,0.00,n/a,n/a,-99.99,Henriksen +1-Wire,2013-07-20 17:23:00,
2013-07-20 13:28:00,89.8,76.2,33.96,NW,318,1.9,4.2,63,0.00,n/a,n/a,-99.99,Henriksen +1-Wire,2013-07-20 17:28:00,
2013-07-20 13:33:00,89.9,75.8,33.95,NNE,30,2.6,4.8,62,0.00,n/a,n/a,-99.99,Henriksen +1-Wire,2013-07-20 17:33:00,
2013-07-20 13:38:00,89.9,76.1,33.94,NNE,19,3.2,4.9,63,0.00,n/a,n/a,-99.99,Henriksen +1-Wire,2013-07-20 17:38:00,
2013-07-20 13:43:00,89.9,76.6,33.95,SW,222,2.0,4.9,64,0.00,n/a,n/a,-99.99,Henriksen +1-Wire,2013-07-20 17:43:00,
2013-07-20 13:49:00,90.4,77.2,33.95,West,269,2.0,6.1,64,0.00,n/a,n/a,-99.99,Henriksen +1-Wire,2013-07-20 17:49:00,
2013-07-20 13:55:00,90.2,77.1,33.93,North,9,1.3,6.1,64,0.00,n/a,n/a,-99.99,Henriksen +1-Wire,2013-07-20 17:55:00,
2013-07-20 14:01:00,89.4,76.4,33.92,SSW,202,3.0,6.6,65,0.00,n/a,n/a,-99.99,Henriksen +1-Wire,2013-07-20 18:01:00,
2013-07-20 14:06:00,89.0,75.9,33.92,NW,316,1.4,6.6,64,0.00,n/a,n/a,-99.99,Henriksen +1-Wire,2013-07-20 18:06:00,
2013-07-20 14:11:00,88.6,75.6,33.91,WSW,241,1.7,6.5,64,0.00,n/a,n/a,-99.99,Henriksen +1-Wire,2013-07-20 18:11:00,
2013-07-20 14:16:00,88.6,76.4,33.90,West,275,2.7,5.5,66,0.00,n/a,n/a,-99.99,Henriksen +1-Wire,2013-07-20 18:16:00,
2013-07-20 14:22:00,88.9,77.2,33.89,WSW,249,1.9,5.5,67,0.00,n/a,n/a,-99.99,Henriksen +1-Wire,2013-07-20 18:22:00,
2013-07-20 14:27:00,89.4,77.2,33.88,SW,226,3.0,6.4,66,0.00,n/a,n/a,-99.99,Henriksen +1-Wire,2013-07-20 18:27:00,
2013-07-20 14:32:00,89.7,77.1,33.88,NNE,19,2.4,6.4,65,0.00,n/a,n/a,-99.99,Henriksen +1-Wire,2013-07-20 18:32:00,
2013-07-20 14:37:00,90.2,77.4,33.87,SW,225,2.7,5.4,65,0.00,n/a,n/a,-99.99,Henriksen +1-Wire,2013-07-20 18:37:00,
2013-07-20 14:43:00,90.0,77.1,33.88,SSW,201,2.1,5.4,65,0.00,n/a,n/a,-99.99,Henriksen +1-Wire,2013-07-20 18:43:00,
2013-07-20 14:48:00,90.2,77.3,33.87,WSW,250,2.1,4.2,65,0.00,n/a,n/a,-99.99,Henriksen +1-Wire,2013-07-20 18:48:00,
2013-07-20 14:54:00,90.3,77.2,33.85,East,85,1.7,4.2,65,0.00,n/a,n/a,-99.99,Henriksen +1-Wire,2013-07-20 18:54:00,
2013-07-20 14:59:00,89.9,76.9,33.85,SW,225,2.9,5.9,64,0.00,n/a,n/a,-99.99,Henriksen +1-Wire,2013-07-20 18:59:00,
2013-07-20 15:05:00,87.9,75.0,33.86,SSW,203,3.9,5.7,65,0.00,n/a,n/a,-99.99,Henriksen +1-Wire,2013-07-20 19:05:00,
2013-07-20 15:11:00,85.7,74.3,33.87,SSW,199,3.1,6.7,68,0.00,n/a,n/a,-99.99,Henriksen +1-Wire,2013-07-20 19:11:00,
2013-07-20 15:20:00,83.5,74.1,33.90,South,174,2.9,7.8,73,0.00,n/a,n/a,-99.99,Henriksen +1-Wire,2013-07-20 19:20:00,
2013-07-20 15:25:00,81.9,73.7,33.91,East,100,1.9,7.8,76,0.00,n/a,n/a,-99.99,Henriksen +1-Wire,2013-07-20 19:25:00,
2013-07-20 15:30:00,79.7,72.7,33.92,East,101,2.0,4.6,78,0.00,n/a,n/a,-99.99,Henriksen +1-Wire,2013-07-20 19:30:00,
2013-07-20 15:36:00,78.5,72.3,33.92,South,183,3.1,4.8,80,0.00,n/a,n/a,-99.99,Henriksen +1-Wire,2013-07-20 19:36:00,
2013-07-20 15:41:00,77.7,71.9,33.92,SSW,212,2.3,6.5,82,0.00,n/a,n/a,-99.99,Henriksen +1-Wire,2013-07-20 19:41:00,
2013-07-20 15:46:00,78.0,72.2,33.91,South,184,3.3,6.5,82,0.00,n/a,n/a,-99.99,Henriksen +1-Wire,2013-07-20 19:46:00,
2013-07-20 15:52:00,78.7,72.4,33.91,ESE,118,1.9,6.1,80,0.00,n/a,n/a,-99.99,Henriksen +1-Wire,2013-07-20 19:52:00,
2013-07-20 15:58:00,79.4,72.3,33.89,South,183,2.3,4.8,78,0.00,n/a,n/a,-99.99,Henriksen +1-Wire,2013-07-20 19:58:00,
2013-07-20 16:03:00,79.9,72.4,33.88,SE,139,1.8,4.3,77,0.00,n/a,n/a,-99.99,Henriksen +1-Wire,2013-07-20 20:03:00,
2013-07-20 16:08:00,80.5,72.6,33.88,SSE,159,2.3,4.2,76,0.00,n/a,n/a,-99.99,Henriksen +1-Wire,2013-07-20 20:08:00,
2013-07-20 16:14:00,80.8,72.9,33.88,SSE,163,0.9,3.2,76,0.00,n/a,n/a,-99.99,Henriksen +1-Wire,2013-07-20 20:14:00,
2013-07-20 16:21:00,81.0,73.4,33.88,East,86,1.8,3.9,77,0.00,n/a,n/a,-99.99,Henriksen +1-Wire,2013-07-20 20:21:00,
2013-07-20 16:26:00,80.8,73.5,33.88,NE,42,2.4,5.4,78,0.00,n/a,n/a,-99.99,Henriksen +1-Wire,2013-07-20 20:26:00,
2013-07-20 16:32:00,81.2,74.1,33.89,North,6,2.0,5.4,78,0.00,n/a,n/a,-99.99,Henriksen +1-Wire,2013-07-20 20:32:00,
2013-07-20 16:37:00,81.5,74.4,33.90,North,359,1.1,5.5,78,0.00,n/a,n/a,-99.99,Henriksen +1-Wire,2013-07-20 20:37:00,
2013-07-20 16:43:00,82.1,74.1,33.89,NNE,16,1.7,5.7,76,0.00,n/a,n/a,-99.99,Henriksen +1-Wire,2013-07-20 20:43:00,
2013-07-20 16:48:00,82.3,74.0,33.90,North,2,2.0,5.7,75,0.00,n/a,n/a,-99.99,Henriksen +1-Wire,2013-07-20 20:48:00,
2013-07-20 16:54:00,82.6,74.1,33.91,NW,316,2.6,5.5,75,0.00,n/a,n/a,-99.99,Henriksen +1-Wire,2013-07-20 20:54:00,
2013-07-20 16:59:00,82.9,74.1,33.92,NW,317,1.7,5.5,74,0.00,n/a,n/a,-99.99,Henriksen +1-Wire,2013-07-20 20:59:00,
2013-07-20 17:04:00,83.1,73.9,33.93,West,275,1.3,3.0,73,0.00,n/a,n/a,-99.99,Henriksen +1-Wire,2013-07-20 21:04:00,
2013-07-20 17:09:00,83.3,74.0,33.95,NE,45,1.6,4.2,72,0.00,n/a,n/a,-99.99,Henriksen +1-Wire,2013-07-20 21:09:00,
2013-07-20 17:15:00,83.4,74.0,33.95,North,1,1.7,4.2,72,0.00,n/a,n/a,-99.99,Henriksen +1-Wire,2013-07-20 21:15:00,
2013-07-20 17:21:00,83.6,74.2,33.96,East,81,1.8,6.1,72,0.00,n/a,n/a,-99.99,Henriksen +1-Wire,2013-07-20 21:21:00,
2013-07-20 17:26:00,83.6,74.4,33.97,NE,46,2.2,6.1,73,0.00,n/a,n/a,-99.99,Henriksen +1-Wire,2013-07-20 21:26:00,
2013-07-20 17:32:00,83.6,74.8,33.98,NW,311,1.5,5.0,74,0.00,n/a,n/a,-99.99,Henriksen +1-Wire,2013-07-20 21:32:00,
2013-07-20 17:38:00,83.6,74.7,33.99,East,83,1.1,5.4,74,0.00,n/a,n/a,-99.99,Henriksen +1-Wire,2013-07-20 21:38:00,
2013-07-20 17:45:00,83.5,74.7,34.00,NNE,26,1.4,5.4,74,0.00,n/a,n/a,-99.99,Henriksen +1-Wire,2013-07-20 21:45:00,
2013-07-20 17:50:00,83.4,74.8,33.99,NE,40,2.0,4.8,74,0.00,n/a,n/a,-99.99,Henriksen +1-Wire,2013-07-20 21:50:00,
2013-07-20 17:56:00,83.4,74.7,33.99,NW,321,1.9,4.0,74,0.00,n/a,n/a,-99.99,Henriksen +1-Wire,2013-07-20 21:56:00,
2013-07-20 18:01:00,83.3,74.4,33.99,WNW,293,2.2,4.9,74,0.00,n/a,n/a,-99.99,Henriksen +1-Wire,2013-07-20 22:01:00,
2013-07-20 18:06:00,83.2,74.2,33.99,NW,314,1.9,4.9,73,0.00,n/a,n/a,-99.99,Henriksen +1-Wire,2013-07-20 22:06:00,
2013-07-20 18:11:00,83.1,74.0,34.00,NE,40,1.3,4.3,73,0.00,n/a,n/a,-99.99,Henriksen +1-Wire,2013-07-20 22:11:00,
2013-07-20 18:16:00,82.9,73.8,34.00,NE,37,2.1,4.6,73,0.00,n/a,n/a,-99.99,Henriksen +1-Wire,2013-07-20 22:16:00,
2013-07-20 18:22:00,82.5,73.5,33.98,NE,47,2.4,4.9,73,0.00,n/a,n/a,-99.99,Henriksen +1-Wire,2013-07-20 22:22:00,
2013-07-20 18:27:00,82.4,73.5,33.98,NE,42,2.0,6.6,74,0.00,n/a,n/a,-99.99,Henriksen +1-Wire,2013-07-20 22:27:00,
2013-07-20 18:32:00,82.2,73.4,33.98,ENE,78,1.7,6.6,74,0.00,n/a,n/a,-99.99,Henriksen +1-Wire,2013-07-20 22:32:00,
2013-07-20 18:39:00,82.1,73.4,34.00,ENE,78,1.6,4.2,74,0.00,n/a,n/a,-99.99,Henriksen +1-Wire,2013-07-20 22:39:00,
2013-07-20 18:47:00,82.0,73.4,34.00,North,0,1.4,3.7,74,0.00,n/a,n/a,-99.99,Henriksen +1-Wire,2013-07-20 22:47:00,
2013-07-20 18:52:00,82.0,73.2,34.00,East,84,1.2,4.3,74,0.00,n/a,n/a,-99.99,Henriksen +1-Wire,2013-07-20 22:52:00,
2013-07-20 18:58:00,81.9,73.2,34.01,NE,45,1.0,4.3,74,0.00,n/a,n/a,-99.99,Henriksen +1-Wire,2013-07-20 22:58:00,
2013-07-20 19:03:00,82.0,73.3,34.01,NNW,333,1.2,2.8,74,0.00,n/a,n/a,-99.99,Henriksen +1-Wire,2013-07-20 23:03:00,
2013-07-20 19:09:00,82.1,73.4,34.00,North,355,2.3,5.4,74,0.00,n/a,n/a,-99.99,Henriksen +1-Wire,2013-07-20 23:09:00,
2013-07-20 19:14:00,82.2,73.5,34.01,NNE,18,2.8,5.4,74,0.00,n/a,n/a,-99.99,Henriksen +1-Wire,2013-07-20 23:14:00,
2013-07-20 19:19:00,82.3,73.3,34.02,North,1,2.8,4.8,73,0.00,n/a,n/a,-99.99,Henriksen +1-Wire,2013-07-20 23:19:00,
2013-07-20 19:25:00,82.1,72.6,34.05,NNW,340,2.5,8.4,72,0.00,n/a,n/a,-99.99,Henriksen +1-Wire,2013-07-20 23:25:00,
2013-07-20 19:30:00,81.9,72.3,34.05,NNW,338,1.3,8.4,72,0.00,n/a,n/a,-99.99,Henriksen +1-Wire,2013-07-20 23:30:00,
2013-07-20 19:35:00,81.8,72.4,34.05,North,354,2.2,4.7,72,0.00,n/a,n/a,-99.99,Henriksen +1-Wire,2013-07-20 23:35:00,
2013-07-20 19:41:00,81.6,72.0,34.06,North,5,2.0,4.8,72,0.00,n/a,n/a,-99.99,Henriksen +1-Wire,2013-07-20 23:41:00,
2013-07-20 19:46:00,81.4,71.1,34.08,NNE,20,2.6,5.1,70,0.00,n/a,n/a,-99.99,Henriksen +1-Wire,2013-07-20 23:46:00,
2013-07-20 19:52:00,80.9,70.5,34.08,NNE,24,1.9,5.1,70,0.00,n/a,n/a,-99.99,Henriksen +1-Wire,2013-07-20 23:52:00,
2013-07-20 19:57:00,80.5,70.5,34.08,North,5,1.6,3.6,71,0.00,n/a,n/a,-99.99,Henriksen +1-Wire,2013-07-20 23:57:00,
2013-07-20 20:03:00,80.0,70.4,34.08,North,356,2.1,5.5,72,0.00,n/a,n/a,-99.99,Henriksen +1-Wire,2013-07-21 00:03:00,
2013-07-20 20:08:00,79.6,70.6,34.09,NNE,21,2.8,6.1,73,0.00,n/a,n/a,-99.99,Henriksen +1-Wire,2013-07-21 00:08:00,
2013-07-20 20:13:00,79.5,70.8,34.09,North,355,1.5,6.1,74,0.00,n/a,n/a,-99.99,Henriksen +1-Wire,2013-07-21 00:13:00,
2013-07-20 20:19:00,79.4,70.6,34.11,North,350,1.2,3.7,74,0.00,n/a,n/a,-99.99,Henriksen +1-Wire,2013-07-21 00:19:00,
2013-07-20 20:24:00,79.3,70.4,34.12,North,352,1.8,6.1,73,0.00,n/a,n/a,-99.99,Henriksen +1-Wire,2013-07-21 00:24:00,
2013-07-20 20:29:00,79.2,70.5,34.12,North,352,1.0,6.1,74,0.00,n/a,n/a,-99.99,Henriksen +1-Wire,2013-07-21 00:29:00,
2013-07-20 20:34:00,79.0,70.5,34.12,NNE,29,1.8,3.0,74,0.00,n/a,n/a,-99.99,Henriksen +1-Wire,2013-07-21 00:34:00,
2013-07-20 20:39:00,78.8,70.6,34.13,North,3,1.6,4.2,75,0.00,n/a,n/a,-99.99,Henriksen +1-Wire,2013-07-21 00:39:00,
2013-07-20 20:45:00,78.5,70.5,34.14,North,0,2.1,4.2,76,0.00,n/a,n/a,-99.99,Henriksen +1-Wire,2013-07-21 00:45:00,
2013-07-20 20:50:00,78.4,70.8,34.16,North,2,2.5,4.2,76,0.00,n/a,n/a,-99.99,Henriksen +1-Wire,2013-07-21 00:50:00,
2013-07-20 20:55:00,78.4,70.9,34.16,North,354,1.4,4.2,77,0.00,n/a,n/a,-99.99,Henriksen +1-Wire,2013-07-21 00:55:00,
2013-07-20 21:00:00,78.5,70.9,34.18,North,352,2.3,4.2,77,0.00,n/a,n/a,-99.99,Henriksen +1-Wire,2013-07-21 01:00:00,
2013-07-20 21:06:00,78.6,70.8,34.19,North,352,2.5,4.2,76,0.00,n/a,n/a,-99.99,Henriksen +1-Wire,2013-07-21 01:06:00,
2013-07-20 21:11:00,78.7,70.6,34.20,NW,313,1.8,4.2,75,0.00,n/a,n/a,-99.99,Henriksen +1-Wire,2013-07-21 01:11:00,
2013-07-20 21:16:00,78.6,70.4,34.20,NNW,336,1.8,6.7,75,0.00,n/a,n/a,-99.99,Henriksen +1-Wire,2013-07-21 01:16:00,
2013-07-20 21:21:00,78.5,70.2,34.19,North,350,1.8,6.7,75,0.00,n/a,n/a,-99.99,Henriksen +1-Wire,2013-07-21 01:21:00,
2013-07-20 21:26:00,78.3,70.2,34.19,North,352,1.7,3.6,75,0.00,n/a,n/a,-99.99,Henriksen +1-Wire,2013-07-21 01:26:00,
2013-07-20 21:31:00,78.2,70.2,34.20,NNW,329,1.9,3.5,76,0.00,n/a,n/a,-99.99,Henriksen +1-Wire,2013-07-21 01:31:00,
2013-07-20 23:32:00,73.1,68.6,34.34,NW,326,1.1,2.4,85,0.00,n/a,n/a,-99.99,Henriksen +1-Wire,2013-07-21 03:32:00,
2013-07-20 23:39:00,72.9,68.5,34.36,North,356,1.3,2.5,85,0.00,n/a,n/a,-99.99,Henriksen +1-Wire,2013-07-21 03:39:00,
2013-07-20 23:44:00,72.7,68.5,34.36,NNW,337,1.8,2.8,86,0.00,n/a,n/a,-99.99,Henriksen +1-Wire,2013-07-21 03:44:00,
2013-07-20 23:52:00,72.4,68.6,34.37,NNE,13,1.2,3.0,87,0.00,n/a,n/a,-99.99,Henriksen +1-Wire,2013-07-21 03:52:00,
2013-07-20 23:57:00,72.4,68.7,34.38,North,356,0.8,3.0,88,0.00,n/a,n/a,-99.99,Henriksen +1-Wire,2013-07-21 03:57:00,